Time,TemperatureF,DewpointF,PressureIn,WindDirection,WindDirectionDegrees,WindSpeedMPH,WindSpeedGustMPH,Humidity,HourlyPrecipIn,Conditions,Clouds,dailyrainin,SoftwareType,DateUTC
2013-08-27 00:18:00,70.0,69.0,29.94,SSW,195,0.0,8.0,96,0.00,,,0.58,,2013-08-27 04:18:00,
2013-08-27 00:47:00,70.0,69.0,29.94,SSW,206,0.0,6.0,96,0.00,,,0.58,,2013-08-27 04:47:00,
2013-08-27 00:54:00,70.0,69.0,29.94,SW,233,3.0,7.0,97,0.00,,,0.54,,2013-08-27 04:54:00,
2013-08-27 01:23:00,70.0,69.0,29.93,SW,224,0.0,5.0,97,0.00,,,0.54,,2013-08-27 05:23:00,
2013-08-27 01:52:00,70.0,69.0,29.94,SW,221,0.0,5.0,97,0.00,,,0.54,,2013-08-27 05:52:00,
2013-08-27 02:12:00,70.0,69.0,29.93,SSW,209,0.0,4.0,97,0.00,,,0.54,,2013-08-27 06:12:00,
2013-08-27 02:22:00,70.0,69.0,29.93,SW,217,3.0,9.0,97,0.00,,,0.54,,2013-08-27 06:22:00,
2013-08-27 02:42:00,70.0,69.0,29.93,SW,221,0.0,5.0,97,0.00,,,0.54,,2013-08-27 06:42:00,
2013-08-27 02:52:00,70.0,69.0,29.93,SSW,213,0.0,1.0,97,0.00,,,0.54,,2013-08-27 06:52:00,
2013-08-27 03:12:00,70.0,69.0,29.93,SW,223,0.0,6.0,97,0.00,,,0.54,,2013-08-27 07:12:00,
2013-08-27 03:22:00,70.0,69.0,29.92,South,186,2.0,9.0,97,0.00,,,0.54,,2013-08-27 07:22:00,
2013-08-27 03:52:00,69.0,68.0,29.92,SSW,208,0.0,1.0,97,0.00,,,0.54,,2013-08-27 07:52:00,
2013-08-27 04:12:00,69.0,68.0,29.92,SSW,211,0.0,1.0,97,0.00,,,0.54,,2013-08-27 08:12:00,
2013-08-27 04:22:00,69.0,68.0,29.92,SSW,207,0.0,3.0,98,0.00,,,0.54,,2013-08-27 08:22:00,
2013-08-27 04:42:00,69.0,68.0,29.92,SSW,200,0.0,0.0,97,0.00,,,0.54,,2013-08-27 08:42:00,
2013-08-27 04:52:00,69.0,68.0,29.92,South,188,0.0,4.0,97,0.00,,,0.54,,2013-08-27 08:52:00,
2013-08-27 05:11:00,69.0,68.0,29.91,SSW,193,0.0,4.0,98,0.00,,,0.54,,2013-08-27 09:11:00,
2013-08-27 05:21:00,69.0,68.0,29.92,SSW,194,0.0,0.0,98,0.00,,,0.54,,2013-08-27 09:21:00,
2013-08-27 05:54:00,69.0,68.0,29.93,South,189,0.0,4.0,98,0.00,,,0.54,,2013-08-27 09:54:00,
2013-08-27 06:14:00,69.0,68.0,29.93,SSW,192,0.0,4.0,98,0.00,,,0.54,,2013-08-27 10:14:00,
2013-08-27 06:25:00,69.0,68.0,29.93,SSW,202,0.0,5.0,98,0.00,,,0.54,,2013-08-27 10:25:00,
2013-08-27 06:43:00,69.0,68.0,29.93,South,190,0.0,6.0,98,0.00,,,0.54,,2013-08-27 10:43:00,
2013-08-27 06:53:00,68.0,67.0,29.93,SSW,192,0.0,6.0,98,0.00,,,0.54,,2013-08-27 10:53:00,
2013-08-27 07:12:00,68.0,67.0,29.93,SSW,196,0.0,5.0,98,0.00,,,0.54,,2013-08-27 11:12:00,
2013-08-27 07:22:00,68.0,67.0,29.93,South,189,0.0,0.0,98,0.00,,,0.54,,2013-08-27 11:22:00,
2013-08-27 07:42:00,69.0,68.0,29.93,South,191,0.0,0.0,98,0.00,,,0.54,,2013-08-27 11:42:00,
2013-08-27 07:52:00,69.0,69.0,29.94,SSW,194,0.0,0.0,99,0.00,,,0.50,,2013-08-27 11:52:00,
2013-08-27 08:12:00,69.0,69.0,29.94,South,185,0.0,0.0,99,0.00,,,0.50,,2013-08-27 12:12:00,
2013-08-27 08:22:00,69.0,69.0,29.94,South,190,0.0,4.0,99,0.00,,,0.50,,2013-08-27 12:22:00,
2013-08-27 08:42:00,69.0,69.0,29.94,South,190,0.0,0.0,99,0.00,,,0.50,,2013-08-27 12:42:00,
2013-08-27 08:52:00,70.0,70.0,29.93,SSW,198,0.0,1.0,99,0.00,,,0.49,,2013-08-27 12:52:00,
2013-08-27 09:11:00,70.0,70.0,29.93,SW,236,0.0,0.0,99,0.00,,,0.49,,2013-08-27 13:11:00,
2013-08-27 09:22:00,70.0,70.0,29.94,SSW,200,0.0,0.0,99,0.00,,,0.49,,2013-08-27 13:22:00,
2013-08-27 09:42:00,70.0,70.0,29.93,SW,226,0.0,1.0,99,0.00,,,0.49,,2013-08-27 13:42:00,
2013-08-27 09:52:00,71.0,71.0,29.94,South,183,0.0,3.0,99,0.00,,,0.43,,2013-08-27 13:52:00,
2013-08-27 10:11:00,71.0,71.0,29.94,SW,217,0.0,1.0,99,0.00,,,0.43,,2013-08-27 14:11:00,
2013-08-27 10:22:00,72.0,72.0,29.94,SSW,213,0.0,0.0,99,0.00,,,0.43,,2013-08-27 14:22:00,
2013-08-27 10:53:00,72.0,72.0,29.93,South,184,0.0,0.0,99,0.00,,,0.42,,2013-08-27 14:53:00,
2013-08-27 11:11:00,73.0,73.0,29.93,SW,225,0.0,1.0,99,0.00,,,0.42,,2013-08-27 15:11:00,
2013-08-27 11:22:00,74.0,74.0,29.93,SSW,207,1.0,6.0,99,0.00,,,0.42,,2013-08-27 15:22:00,
2013-08-27 11:45:00,74.0,74.0,29.93,South,188,0.0,10.0,99,0.00,,,0.42,,2013-08-27 15:45:00,
2013-08-27 11:58:00,76.0,74.0,29.93,SW,219,3.0,10.0,93,0.00,,,0.39,,2013-08-27 15:58:00,
2013-08-27 12:17:00,77.0,74.0,29.93,SW,228,4.0,7.0,91,0.00,,,0.39,,2013-08-27 16:17:00,
2013-08-27 12:28:00,78.0,73.0,29.94,West,259,5.0,9.0,86,0.00,,,0.39,,2013-08-27 16:28:00,
2013-08-27 12:55:00,81.0,75.0,29.92,SW,220,2.0,7.0,82,0.00,,,0.39,,2013-08-27 16:55:00,
2013-08-27 13:13:00,81.0,74.0,29.93,SW,229,2.0,12.0,80,0.00,,,0.39,,2013-08-27 17:13:00,
2013-08-27 13:23:00,80.0,74.0,29.92,SW,230,2.0,11.0,82,0.00,,,0.39,,2013-08-27 17:23:00,
2013-08-27 13:52:00,80.0,75.0,29.91,WSW,247,2.0,6.0,84,0.00,,,0.39,,2013-08-27 17:52:00,
2013-08-27 14:12:00,82.0,76.0,29.91,SSW,213,3.0,10.0,81,0.00,,,0.39,,2013-08-27 18:12:00,
2013-08-27 14:22:00,81.0,75.0,29.91,SSW,205,0.0,6.0,81,0.00,,,0.39,,2013-08-27 18:22:00,
2013-08-27 14:53:00,82.0,76.0,29.89,SSE,155,0.0,5.0,82,0.00,,,0.17,,2013-08-27 18:53:00,
2013-08-27 15:12:00,82.0,75.0,29.90,SSW,209,0.0,4.0,79,0.00,,,0.17,,2013-08-27 19:12:00,
2013-08-27 15:22:00,82.0,75.0,29.89,SW,236,2.0,6.0,79,0.00,,,0.17,,2013-08-27 19:22:00,
2013-08-27 15:52:00,81.0,74.0,29.88,WSW,250,4.0,10.0,79,0.00,,,0.01,,2013-08-27 19:52:00,
2013-08-27 16:12:00,82.0,75.0,29.88,SSW,212,0.0,9.0,80,0.00,,,0.01,,2013-08-27 20:12:00,